Tracking 25648 objects as of 16-May-2022
HD Live streaming from Space Station
objects crossing your sky now

ISS DEB (SEDA-AP)

Track ISS DEB (SEDA-AP) now!
10-day predictions


NORAD ID: 43870
Int'l Code: 1998-067PU
Perigee: 335.7 km
Apogee: 342.3 km
Inclination: 51.6 °
Period: 91.2 minutes
Semi major axis: 6709 km
RCS: Unknown
Launch date: November 20, 1998
Source: International Space Station (ISS)
Launch site: TYURATAM MISSILE AND SPACE COMPLEX (TTMTR)

Note: This is SATELLITE DEBRIS
aabbcc
Your satellite tracking list
Your tracking list is empty




NASA's NSSDC Master Catalog

Two Line Element Set (TLE):
1 43870U 98067PU  22136.11820210  .00085598  00000-0  45957-3 0  9999
2 43870  51.6335  38.7563 0004915 141.7794 218.3556 15.79512506193814
Source of the keplerian elements: AFSPC